{"data":{"norad_id":63329,"epoch":"2026-05-25T04:07:43.613184Z","epoch_age_seconds":56321,"freshness":"FRESH","line1":"1 63329U 25057Y   26145.17203256  .00024481  00000+0  89563-3 0  9998","line2":"2 63329  43.0042 318.9850 0001894 274.9252  85.1383 15.27600978 67472","mean_motion":15.27600978,"eccentricity":0.0001894,"inclination_deg":43.0042,"raan_deg":318.985,"arg_perigee_deg":274.9252,"mean_anomaly_deg":85.1383,"bstar":0.00089563,"rev_number":6747,"period_min":94.265454181976,"perigee_km":481.68678433028,"apogee_km":484.28577782915,"semimajor_km":6861.1232810797,"source":"CELESTRAK","updated_at":"2026-05-25T13:38:19.960916Z"}}